• In Belarus
  • List of Countries
  • For 7 days
  • Water Temperature
  • Weather Map
  • Weather Widgets
  • user-avatar
    Login

    Hourly Weather Innsbruck

    Today, 10 April, Friday

    Time Temperature Precipitation Wind Pressure Humidity
    00:00 +1°C° 0 mm 1 mps 598 mmHg 87%
    01:00 +1°C° 0 mm 1 mps 598 mmHg 87%
    02:00 0°C° 0 mm 1 mps 598 mmHg 86%
    03:00 0°C° 0 mm 1 mps 598 mmHg 85%
    04:00 0°C° 0 mm 1 mps 598 mmHg 84%
    05:00 +1°C° 0 mm 1 mps 598 mmHg 81%
    06:00 +2°C° 0 mm 1 mps 599 mmHg 78%
    07:00 +3°C° 0 mm 1 mps 599 mmHg 76%
    08:00 +4°C° 0 mm 0 mps 600 mmHg 69%
    09:00 +6°C° 0 mm 0 mps 601 mmHg 62%
    10:00 +8°C° 0 mm 0 mps 602 mmHg 55%
    11:00 +9°C° 0 mm 0 mps 602 mmHg 52%
    12:00 +11°C° 0 mm 1 mps 602 mmHg 49%
    13:00 +12°C° 0 mm 1 mps 603 mmHg 46%
    14:00 +11°C° 0 mm 1 mps 602 mmHg 47%
    15:00 +11°C° 0 mm 1 mps 602 mmHg 49%
    16:00 +11°C° 0 mm 1 mps 601 mmHg 50%
    17:00 +8°C° 0 mm 1 mps 600 mmHg 60%
    18:00 +6°C° 0 mm 1 mps 599 mmHg 70%
    19:00 +3°C° 0 mm 1 mps 598 mmHg 80%
    20:00 +2°C° 0 mm 0 mps 598 mmHg 82%
    21:00 +1°C° 0 mm 0 mps 598 mmHg 84%
    22:00 0°C° 0 mm 0 mps 598 mmHg 87%
    23:00 0°C° 0 mm 0 mps 598 mmHg 87%

    Tomorrow, 11 April, Saturday

    Time Temperature Precipitation Wind Pressure Humidity
    00:00 0°C° 0 mm 0 mps 598 mmHg 87%
    01:00 +1°C° 0 mm 1 mps 597 mmHg 88%
    02:00 +1°C° 0 mm 1 mps 597 mmHg 88%
    03:00 0°C° 0 mm 1 mps 597 mmHg 88%
    04:00 0°C° 0 mm 1 mps 597 mmHg 88%
    05:00 +1°C° 0 mm 1 mps 598 mmHg 85%
    06:00 +1°C° 0 mm 0 mps 598 mmHg 82%
    07:00 +3°C° 0 mm 0 mps 599 mmHg 79%
    08:00 +6°C° 0 mm 1 mps 600 mmHg 72%
    09:00 +8°C° 0 mm 1 mps 601 mmHg 65%
    10:00 +10°C° 0 mm 1 mps 601 mmHg 58%
    11:00 +10°C° 0 mm 1 mps 601 mmHg 55%
    12:00 +11°C° 0 mm 1 mps 601 mmHg 52%
    13:00 +11°C° 0 mm 1 mps 602 mmHg 50%
    14:00 +11°C° 0.1 mm 1 mps 601 mmHg 52%
    15:00 +10°C° 0.1 mm 1 mps 601 mmHg 55%
    16:00 +10°C° 0.1 mm 1 mps 600 mmHg 58%
    17:00 +8°C° 0.1 mm 1 mps 599 mmHg 68%
    18:00 +6°C° 0.1 mm 1 mps 599 mmHg 78%
    19:00 +4°C° 0.1 mm 0 mps 598 mmHg 88%
    20:00 +4°C° 0.1 mm 1 mps 598 mmHg 89%
    21:00 +4°C° 0.1 mm 1 mps 598 mmHg 90%
    22:00 +4°C° 0.1 mm 1 mps 598 mmHg 91%
    23:00 +3°C° 0 mm 1 mps 598 mmHg 90%

    Day after tomorrow, 12 April, Sunday

    Time Temperature Precipitation Wind Pressure Humidity
    00:00 +3°C° 0 mm 1 mps 598 mmHg 90%
    01:00 +3°C° 0 mm 1 mps 598 mmHg 90%
    02:00 +3°C° 0 mm 1 mps 597 mmHg 89%
    03:00 +2°C° 0 mm 1 mps 597 mmHg 89%
    04:00 +2°C° 0 mm 1 mps 597 mmHg 89%
    05:00 +3°C° 0 mm 1 mps 597 mmHg 87%
    06:00 +3°C° 0 mm 1 mps 597 mmHg 84%
    07:00 +4°C° 0 mm 1 mps 598 mmHg 82%
    08:00 +6°C° 0.1 mm 1 mps 598 mmHg 76%
    09:00 +7°C° 0.1 mm 1 mps 598 mmHg 69%
    10:00 +9°C° 0.1 mm 1 mps 598 mmHg 63%
    11:00 +10°C° 0.3 mm 1 mps 598 mmHg 60%
    12:00 +9°C° 0.3 mm 2 mps 598 mmHg 56%
    13:00 +10°C° 0.3 mm 2 mps 598 mmHg 53%
    14:00 +9°C° 0.6 mm 2 mps 598 mmHg 55%
    15:00 +9°C° 0.6 mm 2 mps 597 mmHg 57%
    16:00 +8°C° 0.6 mm 2 mps 596 mmHg 59%
    17:00 +7°C° 0.5 mm 2 mps 595 mmHg 65%
    18:00 +5°C° 0.5 mm 2 mps 594 mmHg 71%
    19:00 +4°C° 0.5 mm 1 mps 593 mmHg 78%
    20:00 +3°C° 0.2 mm 2 mps 593 mmHg 80%
    21:00 +2°C° 0.2 mm 2 mps 593 mmHg 83%
    22:00 +1°C° 0.2 mm 2 mps 593 mmHg 85%
    23:00 +1°C° 0.1 mm 2 mps 593 mmHg 86%

    13 April, Monday

    Time Temperature Precipitation Wind Pressure Humidity
    00:00 +1°C° 0.1 mm 2 mps 593 mmHg 87%
    01:00 +1°C° 0.1 mm 2 mps 593 mmHg 88%
    02:00 +2°C° 0 mm 1 mps 592 mmHg 88%
    03:00 +2°C° 0 mm 1 mps 592 mmHg 88%
    04:00 +1°C° 0 mm 1 mps 592 mmHg 88%
    05:00 +2°C° 0.2 mm 1 mps 592 mmHg 88%
    06:00 +2°C° 0.2 mm 1 mps 593 mmHg 88%
    07:00 +1°C° 0.2 mm 0 mps 593 mmHg 87%
    08:00 +3°C° 0.4 mm 1 mps 593 mmHg 84%
    09:00 +4°C° 0.4 mm 1 mps 593 mmHg 80%
    10:00 +4°C° 0.4 mm 1 mps 593 mmHg 77%
    11:00 +5°C° 0.4 mm 1 mps 594 mmHg 72%
    12:00 +6°C° 0.4 mm 1 mps 594 mmHg 68%
    13:00 +7°C° 0.4 mm 1 mps 594 mmHg 64%
    14:00 +7°C° 0.5 mm 1 mps 593 mmHg 67%
    15:00 +7°C° 0.5 mm 1 mps 593 mmHg 69%
    16:00 +6°C° 0.5 mm 1 mps 592 mmHg 72%
    17:00 +5°C° 0.5 mm 1 mps 591 mmHg 78%
    18:00 +4°C° 0.5 mm 1 mps 591 mmHg 84%
    19:00 +3°C° 0.5 mm 1 mps 590 mmHg 91%
    20:00 +3°C° 0.3 mm 1 mps 590 mmHg 92%
    21:00 +2°C° 0.3 mm 1 mps 591 mmHg 93%
    22:00 +2°C° 0.3 mm 1 mps 591 mmHg 95%
    23:00 +2°C° 0.4 mm 1 mps 591 mmHg 95%

    14 April, Tuesday

    Time Temperature Precipitation Wind Pressure Humidity
    00:00 +1°C° 0.4 mm 1 mps 591 mmHg 96%
    01:00 +1°C° 0.4 mm 1 mps 591 mmHg 96%
    02:00 +1°C° 1 mm 1 mps 591 mmHg 97%
    03:00 0°C° 1 mm 1 mps 591 mmHg 97%
    04:00 -2°C° 1 mm 2 mps 591 mmHg 97%
    05:00 -2°C° 0.8 mm 2 mps 591 mmHg 97%
    06:00 -3°C° 0.8 mm 2 mps 591 mmHg 97%
    07:00 -3°C° 0.8 mm 2 mps 591 mmHg 97%
    08:00 -3°C° 0.2 mm 2 mps 591 mmHg 95%
    09:00 -3°C° 0.2 mm 2 mps 591 mmHg 93%
    10:00 -2°C° 0.2 mm 2 mps 591 mmHg 92%
    11:00 -1°C° 0 mm 2 mps 592 mmHg 86%
    12:00 +1°C° 0 mm 2 mps 592 mmHg 81%
    13:00 +2°C° 0 mm 2 mps 592 mmHg 75%
    14:00 +2°C° 0 mm 2 mps 592 mmHg 72%
    15:00 +2°C° 0 mm 2 mps 592 mmHg 68%
    16:00 +2°C° 0 mm 2 mps 592 mmHg 64%
    17:00 -1°C° 0 mm 2 mps 591 mmHg 71%
    18:00 -3°C° 0 mm 2 mps 590 mmHg 79%
    19:00 -2°C° 0 mm 1 mps 590 mmHg 86%
    20:00 -3°C° 0 mm 1 mps 590 mmHg 85%
    21:00 -3°C° 0 mm 1 mps 590 mmHg 83%
    22:00 -5°C° 0 mm 2 mps 590 mmHg 82%
    23:00 -5°C° 0 mm 2 mps 591 mmHg 83%

    15 April, Wednesday

    Time Temperature Precipitation Wind Pressure Humidity
    00:00 -4°C° 0 mm 2 mps 591 mmHg 84%
    01:00 -4°C° 0 mm 2 mps 591 mmHg 85%
    02:00 -3°C° 0 mm 2 mps 591 mmHg 87%
    03:00 -3°C° 0 mm 2 mps 591 mmHg 89%
    04:00 -4°C° 0 mm 3 mps 591 mmHg 90%
    05:00 -2°C° 0 mm 3 mps 591 mmHg 88%
    06:00 -1°C° 0 mm 3 mps 592 mmHg 86%
    07:00 0°C° 0 mm 3 mps 592 mmHg 83%
    08:00 +2°C° 0 mm 3 mps 592 mmHg 76%
    09:00 +3°C° 0 mm 3 mps 593 mmHg 68%
    10:00 +6°C° 0 mm 2 mps 594 mmHg 61%
    11:00 +7°C° 0 mm 2 mps 594 mmHg 58%
    12:00 +8°C° 0 mm 3 mps 594 mmHg 56%
    13:00 +9°C° 0 mm 3 mps 595 mmHg 54%
    14:00 +8°C° 0 mm 3 mps 595 mmHg 56%
    15:00 +8°C° 0 mm 3 mps 594 mmHg 58%
    16:00 +8°C° 0 mm 3 mps 594 mmHg 60%
    17:00 +5°C° 0 mm 3 mps 593 mmHg 68%
    18:00 +4°C° 0 mm 2 mps 593 mmHg 76%
    19:00 +2°C° 0 mm 2 mps 592 mmHg 84%
    20:00 +1°C° 0 mm 3 mps 592 mmHg 86%
    21:00 0°C° 0 mm 3 mps 592 mmHg 88%
    22:00 0°C° 0 mm 3 mps 592 mmHg 89%
    23:00 -1°C° 0 mm 3 mps 592 mmHg 90%
    Show more